Orbital Elements
Epoch 2012 Sept. 30.0 TT = JDT 2456200.5
T 2012 Oct. 11.65276 TT Rudenko
q 3.3002778 (2000.0) P Q
n 0.11850169 Peri. 345.99757 -0.84475148 -0.50498507
a 4.1050616 Node 160.36252 +0.52758546 -0.84133654
e 0.1960467 Incl. 31.81311 +0.08971356 +0.19272496
P 8.32
From 67 observations 2013 Feb. 16-2020 Dec. 25, mean residual 0".7.
|